Marfa, TX

2:51 AM CST on February 23, 2017 (GMT -0600)
Marfa Municipal

Weather History for KMRF - March, 2014

Change the Weather History Date:

Friday, March 7, 2014

  Actual Average Record
Temperature  
Mean Temperature 56 °F -  
Max Temperature 73 °F 63 °F 82 °F (2006)
Min Temperature 39 °F 31 °F 14 °F (2008)
Degree Days  
Heating Degree Days 9    
Growing Degree Days 6 (Base 50)    
Moisture  
Dew Point 22 °F    
Average Humidity 28    
Maximum Humidity 42    
Minimum Humidity 16    
Precipitation  
Precipitation 0.00 in - - ()
Sea Level Pressure  
Sea Level Pressure 29.96 in    
Wind  
Wind Speed 7 mph (WNW)    
Max Wind Speed 21 mph    
Max Gust Speed 29 mph    
Visibility 10 miles    
Events      
Averages and records for this station are not official NWS values.
T = Trace of Precipitation, MM = Missing Value Source: NWS Daily Summary

Daily Weather History Graph

Daily Weather History Graph

Search for Another Location

Airport or City:

Trip Planner

Search our weather history database for the weather conditions in past years. The results will help you decide how hot, cold, wet, or windy it might be!

Date:

Astronomy

Mar. 07, 2014 Rise Set
Actual Time 7:15 AM CST 6:59 PM CST
Civil Twilight 6:51 AM CST 7:23 PM CST
Nautical Twilight 6:23 AM CST 7:50 PM CST
Astronomical Twilight 5:55 AM CST 8:18 PM CST
Moon 11:35 AM CST (3/7) 12:41 AM CST (3/7)
Length of Visible Light 12h 31m
Length of Day
11h 43m
Waxing Crescent, 42% of the Moon is Illuminated
Mar 7
Waxing Crescent
Mar 8
First Quarter
Mar 16
Full
Mar 23
Last Quarter
Mar 30
New

Hourly Weather History & Observations

Time (CST) Temp. Windchill Dew Point Humidity Pressure Visibility Wind Dir Wind Speed Gust Speed Precip Events Conditions
12:15 AM 42.8 °F 38.6 °F 15.8 °F 34% 30.06 in 10.0 mi NW 6.9 mph - N/A   Clear
12:35 AM 42.8 °F 39.3 °F 15.8 °F 34% 30.06 in 10.0 mi NW 5.8 mph - N/A   Clear
12:55 AM 42.8 °F 39.3 °F 17.6 °F 36% 30.06 in 10.0 mi NW 5.8 mph - N/A   Clear
1:15 AM 44.6 °F 40.7 °F 17.6 °F 34% 30.05 in 10.0 mi NNW 6.9 mph - N/A   Clear
1:35 AM 42.8 °F 40.1 °F 17.6 °F 36% 30.04 in 10.0 mi North 4.6 mph - N/A   Clear
1:55 AM 42.8 °F 40.1 °F 17.6 °F 36% 30.04 in 10.0 mi NNE 4.6 mph - N/A   Clear
2:15 AM 44.6 °F 41.4 °F 17.6 °F 34% 30.04 in 10.0 mi North 5.8 mph - N/A   Clear
2:35 AM 44.6 °F 40.7 °F 19.4 °F 37% 30.02 in 10.0 mi North 6.9 mph - N/A   Clear
2:55 AM 44.6 °F 41.4 °F 19.4 °F 37% 30.02 in 10.0 mi North 5.8 mph - N/A   Clear
3:15 AM 44.6 °F 43.1 °F 19.4 °F 37% 30.01 in 10.0 mi North 3.5 mph - N/A   Clear
3:35 AM 44.6 °F 43.1 °F 19.4 °F 37% 30.01 in 10.0 mi NNE 3.5 mph - N/A   Clear
3:55 AM 44.6 °F 43.1 °F 19.4 °F 37% 30.01 in 10.0 mi North 3.5 mph - N/A   Clear
4:15 AM 41.0 °F 38.0 °F 17.6 °F 39% 30.00 in 10.0 mi North 4.6 mph - N/A   Clear
4:35 AM 39.2 °F 35.9 °F 17.6 °F 42% 30.00 in 10.0 mi NE 4.6 mph - N/A   Clear
4:55 AM 39.2 °F 35.0 °F 17.6 °F 42% 30.00 in 10.0 mi North 5.8 mph - N/A   Clear
5:15 AM 41.0 °F 38.0 °F 17.6 °F 39% 30.00 in 10.0 mi NNW 4.6 mph - N/A   Clear
5:35 AM 42.8 °F 39.3 °F 17.6 °F 36% 30.00 in 10.0 mi NNE 5.8 mph - N/A   Clear
5:55 AM 44.6 °F 40.7 °F 19.4 °F 37% 30.00 in 10.0 mi NE 6.9 mph - N/A   Clear
6:15 AM 44.6 °F 40.7 °F 19.4 °F 37% 29.99 in 10.0 mi ENE 6.9 mph - N/A   Partly Cloudy
6:35 AM 42.8 °F 40.1 °F 17.6 °F 36% 30.00 in 10.0 mi North 4.6 mph - N/A   Clear
6:55 AM 42.8 °F 39.3 °F 17.6 °F 36% 29.99 in 10.0 mi North 5.8 mph - N/A   Clear
7:15 AM 44.6 °F 42.2 °F 19.4 °F 37% 29.99 in 10.0 mi North 4.6 mph - N/A   Clear
7:35 AM 44.6 °F 42.2 °F 19.4 °F 37% 30.00 in 10.0 mi North 4.6 mph - N/A   Clear
7:55 AM 46.4 °F 43.5 °F 19.4 °F 34% 30.01 in 10.0 mi North 5.8 mph - N/A   Partly Cloudy
8:15 AM 48.2 °F - 19.4 °F 32% 30.01 in 10.0 mi NNW 6.9 mph - N/A   Scattered Clouds
8:35 AM 50.0 °F - 19.4 °F 30% 30.02 in 10.0 mi North 3.5 mph - N/A   Partly Cloudy
8:55 AM 53.6 °F - 21.2 °F 28% 30.02 in 7.0 mi Calm Calm - N/A   Scattered Clouds
9:15 AM 55.4 °F - 21.2 °F 26% 30.02 in 10.0 mi Calm Calm - N/A   Partly Cloudy
9:35 AM 57.2 °F - 21.2 °F 25% 30.02 in 10.0 mi SSE 4.6 mph - N/A   Clear
9:55 AM 60.8 °F - 21.2 °F 22% 30.02 in 10.0 mi SSE 6.9 mph - N/A   Clear
10:15 AM 60.8 °F - 21.2 °F 22% 30.02 in 10.0 mi South 6.9 mph - N/A   Clear
10:35 AM 62.6 °F - 21.2 °F 20% 30.01 in 10.0 mi South 9.2 mph - N/A   Clear
10:55 AM 64.4 °F - 21.2 °F 19% 30.01 in 10.0 mi South 8.1 mph - N/A   Clear
11:15 AM 64.4 °F - 21.2 °F 19% 30.00 in 10.0 mi SSW 9.2 mph - N/A   Clear
11:35 AM 66.2 °F - 23.0 °F 19% 30.00 in 10.0 mi SSW 11.5 mph 17.3 mph N/A   Clear
11:55 AM 68.0 °F - 24.8 °F 20% 29.99 in 10.0 mi SW 8.1 mph 16.1 mph N/A   Clear
12:15 PM 69.8 °F - 24.8 °F 18% 29.97 in 10.0 mi WSW 11.5 mph 19.6 mph N/A   Clear
12:35 PM 69.8 °F - 24.8 °F 18% 29.97 in 10.0 mi WSW 15.0 mph 20.7 mph N/A   Clear
12:55 PM 71.6 °F - 26.6 °F 19% 29.96 in 10.0 mi WSW 17.3 mph - N/A   Clear
1:15 PM 71.6 °F - 24.8 °F 17% 29.94 in 10.0 mi WSW 17.3 mph 26.5 mph N/A   Clear
1:35 PM 73.4 °F - 24.8 °F 16% 29.93 in 10.0 mi West 19.6 mph 27.6 mph N/A   Clear
1:55 PM 73.4 °F - 24.8 °F 16% 29.92 in 10.0 mi WSW 20.7 mph 24.2 mph N/A   Clear
2:15 PM 73.4 °F - 26.6 °F 18% 29.92 in 10.0 mi WSW 20.7 mph 28.8 mph N/A   Clear
2:35 PM 73.4 °F - 24.8 °F 16% 29.91 in 10.0 mi SW 15.0 mph 26.5 mph N/A   Clear
2:55 PM 73.4 °F - 24.8 °F 16% 29.91 in 10.0 mi WSW 17.3 mph 26.5 mph N/A   Clear
3:15 PM 73.4 °F - 26.6 °F 18% 29.90 in 10.0 mi WSW 18.4 mph 24.2 mph N/A   Clear
3:35 PM 73.4 °F - 24.8 °F 16% 29.89 in 10.0 mi West 15.0 mph 26.5 mph N/A   Clear
3:55 PM 71.6 °F - 24.8 °F 17% 29.89 in 10.0 mi WSW 12.7 mph 18.4 mph N/A   Clear
4:15 PM 71.6 °F - 24.8 °F 17% 29.89 in 10.0 mi SW 15.0 mph 20.7 mph N/A   Clear
4:35 PM 73.4 °F - 24.8 °F 16% 29.88 in 10.0 mi SW 17.3 mph 20.7 mph N/A   Clear
4:55 PM 71.6 °F - 24.8 °F 17% 29.88 in 10.0 mi SW 19.6 mph 24.2 mph N/A   Clear
5:15 PM 71.6 °F - 26.6 °F 19% 29.89 in 10.0 mi SW 13.8 mph - N/A   Partly Cloudy
5:35 PM 71.6 °F - 26.6 °F 19% 29.89 in 10.0 mi WSW 12.7 mph 18.4 mph N/A   Clear
5:55 PM 71.6 °F - 26.6 °F 19% 29.89 in 10.0 mi WSW 13.8 mph - N/A   Clear
6:15 PM 71.6 °F - 26.6 °F 19% 29.89 in 10.0 mi WSW 12.7 mph 17.3 mph N/A   Clear
6:35 PM 69.8 °F - 26.6 °F 20% 29.89 in 10.0 mi SW 11.5 mph - N/A   Clear
6:55 PM 66.2 °F - 26.6 °F 23% 29.89 in 10.0 mi WSW 8.1 mph - N/A   Clear
7:15 PM 64.4 °F - 24.8 °F 22% 29.90 in 10.0 mi West 9.2 mph - N/A   Clear
7:35 PM 60.8 °F - 24.8 °F 25% 29.90 in 10.0 mi West 6.9 mph - N/A   Clear
7:55 PM 59.0 °F - 24.8 °F 27% 29.91 in 10.0 mi West 5.8 mph - N/A   Clear
8:15 PM 53.6 °F - 21.2 °F 28% 29.91 in 10.0 mi WNW 6.9 mph - N/A   Clear
8:35 PM 53.6 °F - 21.2 °F 28% 29.92 in 10.0 mi NW 5.8 mph - N/A   Clear
8:55 PM 48.2 °F - 21.2 °F 34% 29.92 in 10.0 mi NNE 3.5 mph - N/A   Clear
9:15 PM 48.2 °F - 21.2 °F 34% 29.92 in 10.0 mi North 5.8 mph - N/A   Clear
9:35 PM 48.2 °F - 21.2 °F 34% 29.92 in 10.0 mi ESE 4.6 mph - N/A   Clear
9:55 PM 48.2 °F - 21.2 °F 34% 29.92 in 10.0 mi ESE 3.5 mph - N/A   Clear
10:15 PM 44.6 °F 42.2 °F 19.4 °F 37% 29.93 in 10.0 mi NW 4.6 mph - N/A   Clear
10:35 PM 44.6 °F - 19.4 °F 37% 29.93 in 10.0 mi Calm Calm - N/A   Partly Cloudy
10:55 PM 46.4 °F 43.5 °F 21.2 °F 37% 29.93 in 10.0 mi NNW 5.8 mph - N/A   Scattered Clouds
11:15 PM 48.2 °F - 21.2 °F 34% 29.93 in 10.0 mi North 4.6 mph - N/A   Overcast
11:35 PM 48.2 °F - 21.2 °F 34% 29.93 in 10.0 mi NNE 4.6 mph - N/A   Overcast
11:55 PM 50.0 °F - 21.2 °F 32% 29.94 in 10.0 mi North 3.5 mph - N/A   Mostly Cloudy